Regional Weather Roundup
Issued by NWS

Home | Current Version | Previous Version | Text Only | Print | Product List | Glossary On
Versions: 1 2 3 4 5 6 7 8 9 10 11 12 13 14 15 16 17 18 19 20 21 22 23 24 25 26 27 28 29 30 31 32 33 34 35 36 37 38 39 40 41 42 43 44 45 46 47 48 49 50
000
ASUS44 KLIX 191210
RWRLA
LOUISIANA WEATHER ROUNDUP
NATIONAL WEATHER SERVICE NEW ORLEANS LA
700 AM CDT FRI SEP 19 2014

NOTE: "FAIR" INDICATES FEW OR NO CLOUDS BELOW 12,000 FEET WITH NO
      SIGNIFICANT WEATHER AND/OR OBSTRUCTIONS TO VISIBILITY.
      SKY/WX - SKY CONDITION AND SIGNIFICANT WEATHER.
      TMP - AIR TEMPERATURE.    DP   - DEWPOINT TEMPERATURE.
      RH  - RELATIVE HUMIDITY.  PRES - PRESSURE.
      HX  - HEAT INDEX.         WCI  - WIND CHILL INDEX.

*  THESE STATIONS ARE NOT NWS OR FAA STATIONS AND ARE NOT UNDER
   NWS QUALITY CONTROL.

LAZ040-048-061>063-065-066-069-191300-
SOUTHEAST LOUISIANA

CITY           SKY/WX    TMP DP  RH WIND       PRES   REMARKS
N.O. AUDUBON     N/A     76  72  89 MISG        N/A
6HR MIN TEMP:  72; 6HR MAX TEMP:  78; 6HR PCP:  0.05;

N.O. INTL ARPT CLOUDY    76  68  76 E6        29.93R
6HR MIN TEMP:  74; 6HR MAX TEMP:  78; 6HR PCP: TRACE;

N.O. LAKEFRONT CLOUDY    76  70  82 SE8       29.93R
6HR MIN TEMP:  73; 6HR MAX TEMP:  76; 6HR PCP:  0.05;

N.O. DOWNTOWN* CLOUDY    75  66  73 E3        29.93R
6HR MIN TEMP:  73; 6HR MAX TEMP:  75; 6HR PCP:  0.19;

SLIDELL        CLOUDY    72  69  90 NE3       29.94R
6HR MIN TEMP:  72; 6HR MAX TEMP:  73; 6HR PCP: TRACE;

BATON ROUGE    PTCLDY    71  69  93 NE5       29.93R
6HR MIN TEMP:  71; 6HR MAX TEMP:  73; 6HR PCP: TRACE;

BOOTHVILLE     LGT RAIN  75  71  87 E16G23    29.94R
6HR MIN TEMP:  73; 6HR MAX TEMP:  75; 6HR PCP:  0.36;

BELLE CHASSE   CLOUDY    76  70  82 E6        29.92R
6HR MIN TEMP:  73; 6HR MAX TEMP:  76; 6HR PCP:  0.14;

BOGALUSA*        N/A     72  68  89 CALM      29.97R FOG
6HR MIN TEMP:  71; 6HR MAX TEMP:  74;

GALLIANO*      NOT AVBL
NEW ROADS*     FAIR      72  70  94 E3        29.94R
6HR MIN TEMP:  71; 6HR MAX TEMP:  73;

GONZALES*      FAIR      72  72 100 CALM      29.93R
6HR MIN TEMP:  72; 6HR MAX TEMP:  74; 6HR PCP:  0.02;

HAMMOND*       MOCLDY    72  68  88 CALM      29.95R
HOUMA*         PTCLDY    73  68  83 SE3       29.91S
PORT FOURCHON* CLOUDY    75  72  88 E17G23    29.94S

$$

LAZ041-044-053-054-191300-
SOUTHWEST LOUISIANA

CITY           SKY/WX    TMP DP  RH WIND       PRES   REMARKS
LAKE CHARLES   CLOUDY    74  72  93 E6        29.90R
6HR MIN TEMP:  74; 6HR MAX TEMP:  77;

LAFAYETTE      MOCLDY    73  72  96 NE7       29.92R
6HR MIN TEMP:  72; 6HR MAX TEMP:  73;

PATTERSON      PTCLDY    72  70  94 E5        29.93R
6HR MIN TEMP:  72; 6HR MAX TEMP:  73; 6HR PCP:  0.05;

SALT POINT       N/A     76  73  91 VRB3      29.91R
6HR MIN TEMP:  76; 6HR MAX TEMP:  77;

NEW IBERIA     PTCLDY    74  72  93 SE6       29.92R
6HR MIN TEMP:  73; 6HR MAX TEMP:  74; 6HR PCP: TRACE;

CHENAULT AIRPK MOCLDY    73  72  94 CALM      29.91R

$$

LAZ027-028-191300-
CENTRAL LOUISIANA

CITY           SKY/WX    TMP DP  RH WIND       PRES   REMARKS
FORT POLK      CLOUDY    72  71  97 E3        29.92R
6HR MIN TEMP:  72; 6HR MAX TEMP:  73;

ALEXANDRIA INT PTCLDY    70  68  93 E5        29.92R
6HR MIN TEMP:  69; 6HR MAX TEMP:  75;

ALEXANDRIA     PTCLDY    71  68  90 E3        29.94R
6HR MIN TEMP:  70; 6HR MAX TEMP:  75;


$$

LAZ001-002-191300-
NORTHWEST LOUISIANA

CITY           SKY/WX    TMP DP  RH WIND       PRES   REMARKS
SHREVEPORT     MOCLDY    73  71  93 N6        29.93R
6HR MIN TEMP:  71; 6HR MAX TEMP:  74;

BARKSDALE AFB  CLOUDY    71  69  94 N3        29.94R
6HR MIN TEMP:  69; 6HR MAX TEMP:  73;

DTN SHREVEPORT MOCLDY    71  32  23 CALM      29.94R
6HR MIN TEMP:  70; 6HR MAX TEMP:  74;


$$

LAZ014-016-191300-
NORTHEAST LOUISIANA

CITY           SKY/WX    TMP DP  RH WIND       PRES   REMARKS
MONROE         CLEAR     68  66  93 E5        29.97R
6HR MIN TEMP:  66; 6HR MAX TEMP:  73;

TALLULAH       CLEAR     66  64  93 CALM      29.96R
6HR MIN TEMP:  65; 6HR MAX TEMP:  72;


$$




USA.gov is the U.S. government's official web portal to all federal, state and local government web resources and services.